M.P.E.C. 2019-H07 Issued 2019 Apr. 17, 00:43 UT The Minor Planet Electronic Circulars contain information on unusual minor planets and routine data on comets. They are published on behalf of Division F of the International Astronomical Union by the Minor Planet Center, Smithsonian Astrophysical Observatory, Cambridge, MA 02138, U.S.A. Prepared using the Tamkin Foundation Computer Network MPC@CFA.HARVARD.EDU URL https://www.minorplanetcenter.net/ ISSN 1523-6714 2015 KK178 = 2015 MA150 Additional Observations: K15KH8K KC2010 02 16.63486 15 45 37.776-21 12 00.07 21.7 GVEH007F51 K15KH8K KC2010 03 01.61923 15 45 44.618-21 11 30.56 21.6 GVEH007F51 K15KH8K C2010 05 18.40671 15 40 58.382-20 49 42.90 21.4 GVEH007F51 K15KH8K C2010 05 18.41762 15 40 58.324-20 49 42.60 21.3 GVEH007F51 K15KH8K KC2011 01 30.62474 15 51 33.117-20 54 09.54 21.9 GVEH007F51 K15KH8K C2011 05 31.40850 15 46 35.671-20 27 40.80 22.0 GVEH007F51 K15KH8K C2011 06 06.38629 15 46 03.378-20 25 19.59 21.9 GVEH007F51 K15KH8K C2011 06 06.40081 15 46 03.289-20 25 19.31 21.7 GVEH007F51 K15KH8K C2011 06 06.41524 15 46 03.200-20 25 18.82 22.4 GVEH007F51 K15KH8K C2011 06 06.42968 15 46 03.135-20 25 18.53 22.5 GVEH007F51 K15KH8K KC2012 02 22.67214 15 58 58.067-20 36 32.82 21.8 GVEH007F51 K15KH8K KC2012 02 24.64706 15 58 59.835-20 36 26.15 22.8 GVEH007F51 K15KH8K KC2012 05 10.48240 15 55 14.598-20 17 35.60 21.5 GVEH007F51 K15KH8K KC2012 05 15.43626 15 54 47.180-20 15 42.75 22.0 GVEH007F51 K15KH8K C2012 06 12.36105 15 52 14.241-20 05 06.86 21.8 GVEH007F51 K15KH8K C2012 06 12.37504 15 52 14.159-20 05 06.69 22.3 GVEH007F51 K15KH8K C2012 06 12.38908 15 52 14.088-20 05 06.53 22.0 GVEH007F51 K15KH8K KC2013 02 13.63491 16 05 19.130-20 17 49.07 22.4 GVEH007F51 K15KH8K C2013 06 04.38070 15 59 42.648-19 49 25.91 22.0 GVEH007F51 K15KH8K C2013 06 04.39570 15 59 42.545-19 49 25.90 21.9 GVEH007F51 K15KH8K C2013 06 04.41034 15 59 42.474-19 49 25.32 21.6 GVEH007F51 K15KH8K C2013 06 04.42497 15 59 42.387-19 49 24.89 22.0 GVEH007F51 K15KH8K C2013 06 27.31501 15 57 47.593-19 41 39.26 22.5 GVEH007F51 K15KH8K C2013 06 27.32772 15 57 47.520-19 41 39.48 21.4 GVEH007F51 K15KH8K KC2013 07 29.27159 15 56 07.512-19 33 57.37 22.8 GVEH007F51 K15KH8K C2013 08 03.28404 15 56 00.518-19 33 11.42 21.9 GVEH007F51 K15KH8K KC2013 08 27.25451 15 56 04.486-19 31 27.50 22.1 GVEH007F51 K15KH8K C2014 05 21.43517 16 07 45.689-19 34 47.40 22.0 GVEH007F51 K15KH8K C2014 05 21.44828 16 07 45.617-19 34 47.03 21.9 GVEH007F51 K15KH8K C2014 05 21.46136 16 07 45.551-19 34 46.71 22.1 GVEH007F51 K15KH8K C2014 05 21.47447 16 07 45.477-19 34 46.45 21.6 GVEH007F51 K15KH8K C2014 06 18.37956 16 05 13.572-19 25 07.55 21.6 GVEH007F51 K15KH8K C2014 06 18.39217 16 05 13.492-19 25 06.89 21.6 GVEH007F51 K15KH8K C2014 06 18.41731 16 05 13.409-19 25 07.00 21.4 GVEH007F51 K15KH8K C2014 06 28.32951 16 04 26.178-19 22 04.96 22.1 GVEH007F51 K15KH8K C2014 06 28.34009 16 04 26.124-19 22 04.76 22.1 GVEH007F51 K15KH8K C2014 06 28.35068 16 04 26.084-19 22 04.58 22.2 GVEH007F51 K15KH8K C2014 06 28.36127 16 04 26.032-19 22 04.43 21.8 GVEH007F51 K15KH8K C2015 04 15.50744 16 17 27.830-19 26 02.52 21.7 GVEH007F51 K15KH8K C2015 04 15.51965 16 17 27.754-19 26 02.71 22.0 GVEH007F51 K15KH8K C2015 05 20.43471 16 14 35.600-19 14 24.98 21.5 GVEH007F51 K15KH8K C2015 05 20.44682 16 14 35.520-19 14 24.79 22.6 GVEH007F51 K15KH8K C2015 05 20.45894 16 14 35.441-19 14 24.73 22.4 GVEH007F51 K15KH8K C2015 05 20.47105 16 14 35.398-19 14 23.83 22.1 GVEH007F51 K15KH8K C2015 05 21.43023 16 14 30.016-19 14 04.19 21.9 GVEH007F51 K15KH8K C2015 05 21.44232 16 14 29.962-19 14 04.03 22.0 GVEH007F51 K15KH8K C2015 05 21.45442 16 14 29.890-19 14 03.67 21.8 GVEH007F51 K15KH8K C2015 05 21.46653 16 14 29.826-19 14 03.53 21.9 GVEH007F51 K15KH8K C2015 06 11.36053 16 12 33.806-19 06 59.54 21.9 GVEH007F51 K15KH8K C2015 06 11.37266 16 12 33.738-19 06 59.20 22.0 GVEH007F51 K15KH8K C2015 06 11.38474 16 12 33.672-19 06 59.05 22.2 GVEH007F51 K15KH8K C2015 06 11.39681 16 12 33.595-19 06 58.79 22.4 GVEH007F51 K15KH8K C2015 06 13.37825 16 12 23.068-19 06 20.70 21.0 GVEH007F51 K15KH8K C2015 06 13.39033 16 12 22.956-19 06 20.79 21.9 GVEH007F51 K15KH8K C2015 06 13.40244 16 12 22.874-19 06 20.40 22.4 GVEH007F51 K15KH8K C2015 07 12.34889 16 10 10.827-18 58 23.11 22.0 GVEH007F51 K15KH8K C2015 07 12.36066 16 10 10.769-18 58 23.00 21.8 GVEH007F51 K15KH8K C2015 07 12.37242 16 10 10.739-18 58 22.69 21.9 GVEH007F51 K15KH8K C2015 07 12.38423 16 10 10.693-18 58 22.65 22.1 GVEH007F51 K15KH8K C2015 08 06.28428 16 09 09.756-18 54 17.69 21.8 GVEH007F51 K15KH8K C2015 08 06.29597 16 09 09.728-18 54 17.26 21.3 GVEH007F51 K15KH8K C2015 08 06.30765 16 09 09.740-18 54 17.42 21.4 GVEH007F51 K15KH8K C2015 08 06.31940 16 09 09.706-18 54 17.03 21.3 GVEH007F51 K15KH8K C2015 08 08.28346 16 09 07.508-18 54 05.31 22.8 GVEH007F51 K15KH8K C2015 08 08.29756 16 09 07.492-18 54 05.52 21.6 GVEH007F51 K15KH8K C2015 08 08.30880 16 09 07.478-18 54 05.58 22.0 GVEH007F51 K15KH8K C2016 04 05.57922 16 24 38.056-19 06 43.47 22.2 GVEH007F51 K15KH8K C2016 04 05.58933 16 24 38.029-19 06 43.17 21.8 GVEH007F51 K15KH8K C2016 04 05.59945 16 24 37.993-19 06 42.55 21.4 GVEH007F51 K15KH8K C2016 04 05.60957 16 24 37.957-19 06 42.78 21.9 GVEH007F51 K15KH8K C2016 04 14.61015 16 24 07.480-19 04 07.87 20.9 GVEH007F51 K15KH8K C2016 04 14.61805 16 24 07.410-19 04 07.70 21.7 GVEH007F51 K15KH8K C2016 05 03.48298 16 22 43.674-18 58 08.49 21.6 GVEH007F51 K15KH8K C2016 06 08.43738 16 19 27.205-18 46 13.91 21.7 GVEH007F51 K15KH8K C2016 06 08.44774 16 19 27.153-18 46 13.71 22.1 GVEH007F51 K15KH8K C2016 06 08.45748 16 19 27.098-18 46 13.56 22.1 GVEH007F51 K15KH8K C2016 06 08.46720 16 19 27.032-18 46 13.32 22.0 GVEH007F51 K15KH8K KC2016 06 23.38880 16 18 08.950-18 41 49.25 21.8 GVEH007F51 K15KH8K C2016 07 01.36146 16 17 31.521-18 39 44.80 22.1 GVEH007F51 K15KH8K C2016 07 01.37264 16 17 31.455-18 39 44.38 22.1 GVEH007F51 K15KH8K KC2017 03 07.64055 16 31 52.911-18 50 36.11 22.4 GVEH007F51 K15KH8K C2017 04 01.59540 16 31 25.715-18 45 03.85 21.9 GVEH007F51 K15KH8K C2017 04 01.60575 16 31 25.683-18 45 03.55 22.1 GVEH007F51 K15KH8K C2017 04 01.61609 16 31 25.663-18 45 03.42 21.9 GVEH007F51 K15KH8K C2017 04 01.62645 16 31 25.577-18 45 03.11 21.6 GVEH007F51 K15KH8K C2017 05 04.53067 16 29 19.471-18 35 08.23 22.7 GVEH007F51 K15KH8K C2017 05 04.54184 16 29 19.411-18 35 08.07 22.6 GVEH007F51 K15KH8K C2017 05 04.55310 16 29 19.339-18 35 07.97 22.2 GVEH007F51 K15KH8K C2017 05 04.56432 16 29 19.287-18 35 07.32 22.2 GVEH007F51 K15KH8K C2017 05 19.50951 16 28 00.468-18 30 13.91 22.4 GVEH007F51 K15KH8K C2017 05 19.52045 16 28 00.362-18 30 14.01 23.1 GVEH007F51 K15KH8K C2017 05 19.53147 16 28 00.307-18 30 13.49 21.7 GVEH007F51 K15KH8K C2017 05 19.54244 16 28 00.268-18 30 13.29 22.2 GVEH007F51 K15KH8K C2017 05 27.40761 16 27 16.471-18 27 40.79 21.8 GVEH007F51 K15KH8K C2017 05 27.41870 16 27 16.411-18 27 40.68 22.2 GVEH007F51 K15KH8K C2017 05 27.42977 16 27 16.336-18 27 40.32 21.9 GVEH007F51 K15KH8K C2017 05 27.44084 16 27 16.285-18 27 40.15 21.8 GVEH007F51 K15KH8K C2017 07 25.28416 16 22 43.211-18 13 21.40 21.9 GVEH007F51 K15KH8K C2017 07 25.29518 16 22 43.204-18 13 21.32 22.1 GVEH007F51 K15KH8K C2017 07 25.30619 16 22 43.170-18 13 21.12 22.1 GVEH007F51 K15KH8K C2017 08 11.25847 16 22 11.763-18 11 45.83 22.3 GVEH007F51 K15KH8K C2017 08 11.26886 16 22 11.747-18 11 45.85 22.7 GVEH007F51 K15KH8K C2017 08 11.27923 16 22 11.732-18 11 46.03 22.6 GVEH007F51 K15KH8K C2017 08 11.28960 16 22 11.701-18 11 45.95 22.8 GVEH007F51 K15KH8K C2018 04 12.54507 16 37 30.341-18 18 25.09 22.1 GVEH007F51 K15KH8K C2018 04 12.54896 16 37 30.317-18 18 25.25 21.7 GVEH007F51 K15KH8K C2018 04 12.55613 16 37 30.302-18 18 24.91 22.2 GVEH007F51 K15KH8K C2018 04 12.56001 16 37 30.294-18 18 24.95 22.2 GVEH007F51 K15KH8K C2018 04 12.56718 16 37 30.255-18 18 24.94 22.5 GVEH007F51 K15KH8K C2018 04 12.57106 16 37 30.243-18 18 24.91 22.2 GVEH007F51 K15KH8K C2018 04 12.58212 16 37 30.216-18 18 24.43 21.7 GVEH007F51 K15KH8K C2018 05 19.47490 16 34 41.403-18 06 50.58 21.8 GVEH007F51 K15KH8K C2018 05 19.48461 16 34 41.358-18 06 50.40 21.8 GVEH007F51 K15KH8K C2018 05 19.50403 16 34 41.227-18 06 49.86 22.0 GVEH007F51 K15KH8K C2018 06 06.41396 16 33 01.386-18 01 21.11 21.9 GVEH007F51 K15KH8K C2018 06 06.42511 16 33 01.319-18 01 21.31 22.1 GVEH007F51 K15KH8K C2018 06 06.43625 16 33 01.259-18 01 21.04 22.1 GVEH007F51 K15KH8K C2018 06 06.44741 16 33 01.175-18 01 20.40 21.6 GVEH007F51 K15KH8K C2018 06 14.39758 16 32 17.352-17 59 06.32 22.6 GVEH007F51 K15KH8K C2018 06 14.40855 16 32 17.293-17 59 06.15 22.9 GVEH007F51 K15KH8K C2018 06 14.41951 16 32 17.225-17 59 06.16 22.8 GVEH007F51 K15KH8K C2018 06 14.43049 16 32 17.161-17 59 05.55 21.7 GVEH007F51 K15KH8K C2018 07 12.33378 16 30 03.307-17 52 45.09 21.9 GVEH007F51 K15KH8K C2018 07 12.33702 16 30 03.292-17 52 45.06 22.0 GVEH007F51 K15KH8K C2018 07 12.34426 16 30 03.261-17 52 45.03 22.1 GVEH007F51 K15KH8K C2018 07 12.34750 16 30 03.249-17 52 44.91 22.1 GVEH007F51 K15KH8K C2018 07 12.35474 16 30 03.224-17 52 44.87 22.0 GVEH007F51 K15KH8K C2018 07 12.35798 16 30 03.210-17 52 44.71 21.9 GVEH007F51 K15KH8K C2018 07 12.36523 16 30 03.176-17 52 44.72 22.0 GVEH007F51 K15KH8K C2018 07 12.36849 16 30 03.164-17 52 44.73 21.8 GVEH007F51 Observer details: F51 Pan-STARRS 1, Haleakala. Observers J. Bulger, K. Chambers, B. Gibson, T. Goggia, T. Lowe, E. Magnier, N. Primak, A. Schultz, J. Thiel, S. Watters, M. Willman. Measurers S. Chastel, M. Huber, R. Jedicke, R. Wainscoat, R. Weryk. 1.8-m Ritchey-Chretien + CCD. Orbital elements: 2015 KK178 = 2015 MA150 Epoch 2019 Apr. 27.0 TT = JDT 2458600.5 MPC M 265.33751 (2000.0) P Q n 0.00435293 Peri. 107.24104 +0.91210027 +0.23263317 a 37.1490695 Node 240.49369 -0.30847726 +0.93178469 e 0.0124748 Incl. 22.82262 +0.27002755 +0.27867382 P 226 H 6.5 G 0.15 U 2 Residuals in seconds of arc 100216 F51 0.2+ 0.2+ 150521 F51 0.1- 0.1+ 170401 F51 0.8- 0.0 100301 F51 0.5+ 0.1- 150521 F51 0.1+ 0.0 170504 F51 0.3+ 0.0 100518 F51 0.0 0.1+ 150521 F51 0.0 0.1+ 170504 F51 0.2+ 0.1- 100518 F51 0.0 0.1+ 150521 F51 0.1+ 0.0 170504 F51 0.0 0.2- 110130 F51 0.1- 0.1- 150523 W84 0.1+ 0.0 170504 F51 0.1+ 0.3+ 110531 F51 0.1- 0.1- 150524 W84 0.1- 0.1+ 170519 F51 0.1+ 0.2+ 110606 F51 0.1+ 0.1- 150611 F51 0.0 0.0 170519 F51 0.5- 0.2- 110606 F51 0.1- 0.1- 150611 F51 0.0 0.1+ 170519 F51 0.4- 0.1+ 110606 F51 0.2- 0.0 150611 F51 0.0 0.0 170519 F51 0.1- 0.1+ 110606 F51 0.0 0.0 150611 F51 0.1- 0.0 170527 F51 0.0 0.1+ 120222 F51 0.3- 0.2+ 150613 F51 0.8+ 0.0 170527 F51 0.0 0.0 120224 F51 0.1- 0.1- 150613 F51 0.1+ 0.3- 170527 F51 0.1- 0.1+ 120510 F51 0.1- 0.0 150613 F51 0.1- 0.2- 170527 F51 0.0 0.1+ 120515 F51 0.2- 0.1+ 150621 W84 0.2+ 0.0 170725 F51 0.2- 0.0 120612 F51 0.1+ 0.1+ 150621 W84 0.2+ 0.0 170725 F51 0.1+ 0.0 120612 F51 0.1- 0.0 150622 W84 0.3+ 0.1+ 170725 F51 0.1+ 0.1+ 120612 F51 0.0 0.2- 150622 W84 0.5+ 0.5- 170811 F51 0.2+ 0.1+ 130213 F51 0.0 0.1- 150712 F51 0.1+ 0.0 170811 F51 0.1+ 0.1+ 130604 F51 0.2+ 0.1+ 150712 F51 0.1- 0.0 170811 F51 0.0 0.2- 130604 F51 0.1- 0.2- 150712 F51 0.1+ 0.1+ 170811 F51 0.3- 0.1- 130604 F51 0.1+ 0.1+ 150712 F51 0.1+ 0.0 180412 F51 0.1+ 0.1+ 130604 F51 0.0 0.2+ 150806 F51 0.1+ 0.2- 180412 F51 0.1- 0.2- 130627 F51 0.1+ 0.1+ 150806 F51 0.1- 0.1+ 180412 F51 0.1+ 0.1+ 130627 F51 0.2- 0.3- 150806 F51 0.3+ 0.1- 180412 F51 0.1+ 0.0 130729 F51 0.1- 0.3- 150806 F51 0.1+ 0.2+ 180412 F51 0.1- 0.2- 130803 F51 0.0 0.0 150808 F51 0.2- 0.3+ 180412 F51 0.1- 0.2- 130827 F51 0.0 0.1- 150808 F51 0.2- 0.0 180412 F51 0.1+ 0.1+ 140521 F51 0.1- 0.1- 150808 F51 0.2- 0.1- 180519 F51 0.2+ 0.1- 140521 F51 0.1- 0.0 160405 F51 0.0 0.0 180519 F51 0.3+ 0.1- 140521 F51 0.1+ 0.0 160405 F51 0.0 0.1+ 180519 F51 0.0 0.1+ 140521 F51 0.1+ 0.0 160405 F51 0.0 0.6+ 180606 F51 0.0 0.2+ 140618 F51 0.4- 0.1- 160405 F51 0.1- 0.2+ 180606 F51 0.0 0.2- 140618 F51 0.6- 0.4+ 160414 F51 0.5+ 0.0 180606 F51 0.0 0.1- 140618 F51 0.0 0.2- 160414 F51 0.0 0.0 180606 F51 0.3- 0.3+ 140628 F51 0.0 0.0 160503 F51 0.5+ 0.1- 180614 F51 0.1- 0.1- 140628 F51 0.1- 0.0 160608 F51 0.1- 0.0 180614 F51 0.1- 0.1- 140628 F51 0.0 0.0 160608 F51 0.0 0.0 180614 F51 0.2- 0.3- 140628 F51 0.0 0.1- 160608 F51 0.0 0.0 180614 F51 0.3- 0.1+ 150415 F51 0.0 0.2+ 160608 F51 0.2- 0.0 180712 F51 0.0 0.0 150415 F51 0.4- 0.2- 160623 F51 0.2- 0.2+ 180712 F51 0.0 0.0 150520 W84 0.4- 0.2+ 160701 F51 0.2+ 0.1- 180712 F51 0.0 0.1- 150520 F51 0.3+ 0.1+ 160701 F51 0.1- 0.1+ 180712 F51 0.0 0.0 150520 F51 0.1+ 0.0 170307 F51 0.3+ 0.1+ 180712 F51 0.1+ 0.0 150520 F51 0.0 0.2- 170401 F51 0.1+ 0.3- 180712 F51 0.1+ 0.1+ 150520 F51 0.3+ 0.5+ 170401 F51 0.0 0.1- 180712 F51 0.0 0.0 150521 W84 0.4- 0.2+ 170401 F51 0.1+ 0.2- 180712 F51 0.0 0.0 Ephemeris: 2015 KK178 a,e,i = 37.15, 0.01, 23 q = 36.686 Date TT R. A. (2000) Decl. Delta r Elong. Phase V 2019 03 18 16 44 52.6 -18 00 49 36.9292 37.1939 104.7 1.5 22.4 ... 2019 04 02 16 44 33.2 -17 57 00 36.6899 37.1934 119.6 1.3 22.4 ... 2019 04 10 16 44 13.1 -17 54 45 36.5747 37.1931 127.5 1.2 22.3 ... 2019 04 16 16 43 54.2 -17 52 58 36.4959 37.1929 133.4 1.1 22.3 2019 04 17 16 43 50.7 -17 52 40 36.4835 37.1928 134.4 1.1 22.3 2019 04 18 16 43 47.1 -17 52 22 36.4712 37.1928 135.4 1.1 22.3 ... 2019 04 24 16 43 24.1 -17 50 32 36.4023 37.1926 141.3 1.0 22.3 ... 2019 05 02 16 42 49.2 -17 48 02 36.3235 37.1923 149.2 0.8 22.3 ... 2019 05 17 16 41 33.9 -17 43 20 36.2204 37.1918 163.7 0.4 22.2 Gareth V. Williams (C) Copyright 2019 MPC M.P.E.C. 2019-H07
